Location: Unspecified
(0.0000°N, 0.0000°E)
Time: 05:34:25
(UTC+00:00)

S-56A Canister/Altair - Pass Details

Date: 26 May 2024
Orbit: 637 x 2489 km, 38.9° (Epoch: 21 June)

Event Time Altitude Azimuth Distance (km) Brightness Sun altitude
Rises 21:52:47 0° 192° (SSW) 4,802 - -52.9°
Reaches altitude 10° 21:59:05 10° 164° (SSE) 4,284 - -54.1°
Maximum altitude 22:03:09 12° 143° (SE) 4,361 - -54.9°
Drops below altitude 10° 22:07:35 10° 123° (ESE) 4,772 - -55.8°
Sets 22:15:44 0° 97° (E) 6,068 - -57.3°
